Time,TemperatureF,DewpointF,PressureIn,WindDirection,WindDirectionDegrees,WindSpeedMPH,WindSpeedGustMPH,Humidity,HourlyPrecipIn,Conditions,Clouds,dailyrainin,SoftwareType,DateUTC
2013-08-30 00:23:00,71.0,70.0,-100.00,North,355,0.0,0.0,99,-99.99,,,-99.99,,2013-08-30 05:23:00,
2013-08-30 00:34:00,71.0,70.0,-100.00,North,355,0.0,0.0,99,-99.99,,,-99.99,,2013-08-30 05:34:00,
2013-08-30 00:42:00,71.0,70.0,-100.00,North,355,0.0,0.0,99,-99.99,,,-99.99,,2013-08-30 05:42:00,
2013-08-30 00:52:00,71.0,70.0,-100.00,North,355,0.0,0.0,99,-99.99,,,-99.99,,2013-08-30 05:52:00,
2013-08-30 01:22:00,71.0,71.0,-100.00,North,355,0.0,0.0,99,-99.99,,,-99.99,,2013-08-30 06:22:00,
2013-08-30 01:32:00,71.0,71.0,-100.00,North,355,0.0,0.0,99,-99.99,,,-99.99,,2013-08-30 06:32:00,
2013-08-30 01:42:00,71.0,71.0,-100.00,North,355,0.0,0.0,99,-99.99,,,-99.99,,2013-08-30 06:42:00,
2013-08-30 01:53:00,71.0,71.0,-100.00,North,355,0.0,0.0,99,-99.99,,,-99.99,,2013-08-30 06:53:00,
2013-08-30 02:22:00,70.0,70.0,-100.00,North,355,0.0,0.0,99,-99.99,,,-99.99,,2013-08-30 07:22:00,
2013-08-30 02:32:00,70.0,70.0,-100.00,North,355,0.0,0.0,99,-99.99,,,-99.99,,2013-08-30 07:32:00,
2013-08-30 02:43:00,70.0,70.0,-100.00,North,355,0.0,0.0,99,-99.99,,,-99.99,,2013-08-30 07:43:00,
2013-08-30 03:22:00,70.0,70.0,-100.00,North,355,0.0,0.0,99,-99.99,,,-99.99,,2013-08-30 08:22:00,
2013-08-30 03:32:00,70.0,70.0,-100.00,North,355,0.0,0.0,99,-99.99,,,-99.99,,2013-08-30 08:32:00,
2013-08-30 03:43:00,70.0,70.0,-100.00,North,355,0.0,0.0,99,-99.99,,,-99.99,,2013-08-30 08:43:00,
2013-08-30 04:22:00,69.0,69.0,-100.00,North,355,0.0,0.0,99,-99.99,,,-99.99,,2013-08-30 09:22:00,
2013-08-30 04:33:00,69.0,69.0,-100.00,North,355,0.0,0.0,99,-99.99,,,-99.99,,2013-08-30 09:33:00,
2013-08-30 04:44:00,69.0,69.0,-100.00,North,355,0.0,0.0,99,-99.99,,,-99.99,,2013-08-30 09:44:00,
2013-08-30 04:53:00,69.0,69.0,-100.00,North,355,0.0,0.0,99,-99.99,,,-99.99,,2013-08-30 09:53:00,
2013-08-30 05:23:00,69.0,69.0,-100.00,North,355,0.0,0.0,99,-99.99,,,-99.99,,2013-08-30 10:23:00,
2013-08-30 05:32:00,69.0,69.0,-100.00,North,355,0.0,0.0,99,-99.99,,,-99.99,,2013-08-30 10:32:00,
2013-08-30 05:43:00,69.0,69.0,-100.00,North,355,0.0,0.0,99,-99.99,,,-99.99,,2013-08-30 10:43:00,
2013-08-30 05:53:00,69.0,69.0,-100.00,North,355,0.0,0.0,99,-99.99,,,-99.99,,2013-08-30 10:53:00,
2013-08-30 06:22:00,69.0,69.0,-100.00,North,355,0.0,0.0,99,-99.99,,,-99.99,,2013-08-30 11:22:00,
2013-08-30 06:33:00,69.0,69.0,-100.00,North,355,0.0,0.0,99,-99.99,,,-99.99,,2013-08-30 11:33:00,
2013-08-30 06:42:00,69.0,69.0,-100.00,North,355,0.0,0.0,99,-99.99,,,-99.99,,2013-08-30 11:42:00,
2013-08-30 06:52:00,69.0,69.0,-100.00,North,355,0.0,0.0,99,-99.99,,,-99.99,,2013-08-30 11:52:00,
2013-08-30 07:21:00,70.0,70.0,-100.00,North,355,0.0,0.0,99,-99.99,,,-99.99,,2013-08-30 12:21:00,
2013-08-30 07:32:00,70.0,70.0,-100.00,North,355,0.0,0.0,99,-99.99,,,-99.99,,2013-08-30 12:32:00,
2013-08-30 07:42:00,70.0,70.0,-100.00,North,355,0.0,0.0,99,-99.99,,,-99.99,,2013-08-30 12:42:00,
2013-08-30 07:52:00,70.0,70.0,-100.00,North,355,0.0,0.0,99,-99.99,,,-99.99,,2013-08-30 12:52:00,
2013-08-30 08:21:00,75.0,75.0,-100.00,North,355,0.0,0.0,99,-99.99,,,-99.99,,2013-08-30 13:21:00,
2013-08-30 08:32:00,75.0,75.0,-100.00,North,355,0.0,0.0,99,-99.99,,,-99.99,,2013-08-30 13:32:00,
2013-08-30 08:42:00,75.0,75.0,-100.00,North,355,0.0,0.0,99,-99.99,,,-99.99,,2013-08-30 13:42:00,
2013-08-30 08:52:00,75.0,75.0,-100.00,North,355,0.0,0.0,99,-99.99,,,-99.99,,2013-08-30 13:52:00,
2013-08-30 13:22:00,92.0,81.0,-100.00,North,355,0.0,0.0,71,-99.99,,,-99.99,,2013-08-30 18:22:00,
2013-08-30 13:32:00,92.0,81.0,-100.00,North,355,0.0,0.0,71,-99.99,,,-99.99,,2013-08-30 18:32:00,
2013-08-30 13:42:00,92.0,81.0,-100.00,North,355,0.0,0.0,71,-99.99,,,-99.99,,2013-08-30 18:42:00,
2013-08-30 13:52:00,92.0,81.0,-100.00,North,355,0.0,0.0,71,-99.99,,,-99.99,,2013-08-30 18:52:00,
2013-08-30 18:22:00,74.0,74.0,-100.00,North,355,0.0,0.0,99,-99.99,,,-99.99,,2013-08-30 23:22:00,
2013-08-30 18:33:00,74.0,74.0,-100.00,North,355,0.0,0.0,99,-99.99,,,-99.99,,2013-08-30 23:33:00,
2013-08-30 18:42:00,74.0,74.0,-100.00,North,355,0.0,0.0,99,-99.99,,,-99.99,,2013-08-30 23:42:00,
2013-08-30 18:53:00,74.0,74.0,-100.00,North,355,0.0,0.0,99,-99.99,,,-99.99,,2013-08-30 23:53:00,
2013-08-30 19:22:00,72.0,72.0,-100.00,North,355,0.0,0.0,99,-99.99,,,-99.99,,2013-08-31 00:22:00,
2013-08-30 19:32:00,72.0,72.0,-100.00,North,355,0.0,0.0,99,-99.99,,,-99.99,,2013-08-31 00:32:00,
2013-08-30 19:42:00,72.0,72.0,-100.00,North,355,0.0,0.0,99,-99.99,,,-99.99,,2013-08-31 00:42:00,
2013-08-30 19:52:00,72.0,72.0,-100.00,North,355,0.0,0.0,99,-99.99,,,-99.99,,2013-08-31 00:52:00,
2013-08-30 20:22:00,72.0,72.0,-100.00,North,355,0.0,0.0,99,-99.99,,,-99.99,,2013-08-31 01:22:00,
2013-08-30 20:32:00,72.0,72.0,-100.00,North,355,0.0,0.0,99,-99.99,,,-99.99,,2013-08-31 01:32:00,
2013-08-30 20:42:00,72.0,72.0,-100.00,North,355,0.0,0.0,99,-99.99,,,-99.99,,2013-08-31 01:42:00,
2013-08-30 20:52:00,72.0,72.0,-100.00,North,355,0.0,0.0,99,-99.99,,,-99.99,,2013-08-31 01:52:00,
2013-08-30 21:22:00,74.0,73.0,-100.00,North,355,0.0,0.0,99,-99.99,,,-99.99,,2013-08-31 02:22:00,
2013-08-30 21:32:00,74.0,73.0,-100.00,North,355,0.0,0.0,99,-99.99,,,-99.99,,2013-08-31 02:32:00,
2013-08-30 21:42:00,74.0,73.0,-100.00,North,355,0.0,0.0,99,-99.99,,,-99.99,,2013-08-31 02:42:00,
2013-08-30 21:52:00,74.0,73.0,-100.00,North,355,0.0,0.0,99,-99.99,,,-99.99,,2013-08-31 02:52:00,
2013-08-30 21:54:00,72.0,72.0,-100.00,North,355,0.0,0.0,99,-99.99,,,-99.99,,2013-08-31 02:54:00,
2013-08-30 22:22:00,72.0,72.0,-100.00,North,355,0.0,0.0,99,-99.99,,,-99.99,,2013-08-31 03:22:00,
2013-08-30 22:34:00,72.0,72.0,-100.00,North,355,0.0,0.0,99,-99.99,,,-99.99,,2013-08-31 03:34:00,
2013-08-30 22:44:00,72.0,72.0,-100.00,North,355,0.0,0.0,99,-99.99,,,-99.99,,2013-08-31 03:44:00,
2013-08-30 22:54:00,71.0,70.0,-100.00,North,355,0.0,0.0,99,-99.99,,,-99.99,,2013-08-31 03:54:00,
2013-08-30 23:24:00,71.0,70.0,-100.00,North,355,0.0,0.0,99,-99.99,,,-99.99,,2013-08-31 04:24:00,
2013-08-30 23:34:00,71.0,70.0,-100.00,North,355,0.0,0.0,99,-99.99,,,-99.99,,2013-08-31 04:34:00,
2013-08-30 23:44:00,71.0,70.0,-100.00,North,355,0.0,0.0,99,-99.99,,,-99.99,,2013-08-31 04:44:00,